Regional Weather Roundup
Issued by NWS

Home | Current Version | Previous Version | Text Only | Print | Product List | Glossary Off
Versions: 1 2 3 4 5 6 7 8 9 10 11 12 13 14 15 16 17 18 19 20 21 22 23 24 25 26 27 28 29 30 31 32 33 34 35 36 37 38 39 40 41 42 43 44 45 46 47 48 49 50

000
ASUS43 KMKX 020600
RWRWI

WISCONSIN REGIONAL WEATHER ROUNDUP
NATIONAL WEATHER SERVICE MILWAUKEE/SULLIVAN WI
100 AM CDT TUE SEP 02 2014

NOTE: "FAIR" INDICATES FEW OR NO CLOUDS BELOW 12,000 FEET WITH NO
SIGNIFICANT WEATHER AND/OR OBSTRUCTIONS TO VISIBILITY.

WIZ001-002-006>008-014>016-023>028-020700-
NORTHWEST WISCONSIN

CITY           SKY/WX    TMP DP  RH WIND       PRES   REMARKS
SUPERIOR ARPT  FAIR      56  54  92 SW6       29.76R
ASHLAND        FAIR      56  51  84 SW6       29.77S
6HR MIN TEMP:  55; 6HR MAX TEMP:  68;

HAYWARD        FAIR      52  52 100 CALM      29.80R
6HR MIN TEMP:  52; 6HR MAX TEMP:  68;

SIREN          FAIR      58  56  92 SW5       29.78F
RICE LAKE      FAIR      55  54  95 CALM      29.82S
6HR MIN TEMP:  55; 6HR MAX TEMP:  69; 6HR PCP:  0.01;

LADYSMITH      FAIR      57  55  93 CALM      29.83S
EAU CLAIRE     NOT AVBL
MENOMONIE      MOCLDY    62  56  83 CALM      29.81S
NEW RICHMOND   FAIR      59  57  95 S3        29.81R
OSCEOLA        FAIR      58  58 100 SE3       29.84R
$$

WIZ003>005-009-010-017-018-020700-
NORTH CENTRAL WISCONSIN

CITY           SKY/WX    TMP DP  RH WIND       PRES   REMARKS
WOODRUFF       FAIR      57  54  89 W3        29.81R
RHINELANDER    FAIR      52  51  97 W5        29.83R
6HR MIN TEMP:  52; 6HR MAX TEMP:  66;

EAGLE RIVER    FOG       50  50 100 CALM      29.80R VSB 1/2
LAND O LAKES   FAIR      49  49  99 CALM      29.81R FOG
PHILLIPS       FAIR      54  51  92 CALM      29.81R
TOMAHAWK       FAIR      49  48  97 CALM      29.83R FOG
MEDFORD        FAIR      57  54  91 SW3       29.84R
MERRILL        FAIR      53  53 100 CALM      29.83R
$$

WIZ029-030-035-036-043>047-020700-
CENTRAL WISCONSIN

CITY           SKY/WX    TMP DP  RH WIND       PRES   REMARKS
WAUSAU         FAIR      57  55  93 CALM      29.83R
6HR MIN TEMP:  57; 6HR MAX TEMP:  70;

MOSINEE        FAIR      55  55 100 CALM      29.85R
MARSHFIELD     FAIR      59  55  87 W7        29.85R
6HR MIN TEMP:  58; 6HR MAX TEMP:  70;

STEVENS POINT  FAIR      54  53  97 CALM      29.85R
WAUPACA        FAIR      60  58  94 CALM      29.84R
WAUTOMA        NOT AVBL
WISC RAPIDS    FOG       56  55  97 SW3       29.87R VSB 1
6HR MIN TEMP:  56; 6HR MAX TEMP:  72;

CAMP DOUGLAS   FAIR      55  55 100 SE2       29.86S FOG
$$

WIZ011>013-019>022-031-037>040-048>050-020700-
NORTHEAST WISCONSIN

CITY           SKY/WX    TMP DP  RH WIND       PRES   REMARKS
ANTIGO         FAIR      53  52  98 W3        29.84R
STURGEON BAY   FAIR      63  57  82 W5        29.81R
6HR MIN TEMP:  63; 6HR MAX TEMP:  72;

GREEN BAY      FAIR      60  58  92 W6        29.82R
6HR MIN TEMP:  60; 6HR MAX TEMP:  72;

MANITOWOC      NOT AVBL
APPLETON       FAIR      61  61 100 W6        29.84R
CLINTONVILLE   FAIR      59  55  88 W5        29.83R
OSHKOSH        FAIR      64  61  90 W3        29.84R
6HR MIN TEMP:  63; 6HR MAX TEMP:  71;

$$

WIZ032>034-041-042-053>061-020700-
SOUTHWEST WISCONSIN

CITY           SKY/WX    TMP DP  RH WIND       PRES   REMARKS
LA CROSSE      FAIR      63  60  90 SE5       29.85R
6HR MIN TEMP:  63; 6HR MAX TEMP:  76;

SPARTA         FAIR      55  55  97 CALM      29.87R
VIROQUA        FAIR      60  60 100 SW3       29.88R
BOSCOBEL       FOG       60  58  92 CALM      29.87R VSB 1
6HR MIN TEMP:  60; 6HR MAX TEMP:  76;

PRAIRIE DU CHI FAIR      61  59  93 E3        29.86R
PLATTEVILLE    FAIR      65  62  93 CALM      29.88S
$$

WIZ056-057-062-063-064-067-068-020700-
SOUTH CENTRAL WISCONSIN

CITY           SKY/WX    TMP DP  RH WIND       PRES   REMARKS
BARABOO/DELLS  FAIR      61  58  91 CALM      29.86R
LONE ROCK      FAIR      63  57  82 CALM      29.86S FOG
WATERTOWN      FAIR      63  63 100 CALM      29.86R
MADISON        FAIR      66  61  84 CALM      29.86R
6HR MIN TEMP:  63; 6HR MAX TEMP:  73;

MIDDLETON      FAIR      64  63  94 CALM      29.87R
MONROE         FAIR      66  63  88 W8        29.87S
JANESVILLE     FAIR      66  64  94 CALM      29.86R
$$

WIZ051-052-058>065-066-070>072-020700-
SOUTHEAST WISCONSIN

CITY           SKY/WX    TMP DP  RH WIND       PRES   REMARKS
MILWAUKEE      MOCLDY    69  63  81 W6        29.84S
6HR MIN TEMP:  69; 6HR MAX TEMP:  74; 6HR PCP: TRACE;

WAUKESHA       FAIR      63  59  88 CALM      29.86S
MILWAUKEE/TIMM FAIR      64  59  82 W3        29.85S
RACINE         FAIR      67  65  93 SW6       29.88R
6HR MIN TEMP:  67; 6HR MAX TEMP:  78; 6HR PCP:  0.24;

BURLINGTON     FAIR      63  63  99 SW3       29.86R
KENOSHA        FAIR      67  65  93 SW5       29.87R
6HR MIN TEMP:  65; 6HR MAX TEMP:  77; 6HR PCP: TRACE;

FOND DU LAC    FAIR      63  60  90 W6        29.84S
6HR MIN TEMP:  63; 6HR MAX TEMP:  69;

SHEBOYGAN      FAIR      61  60  97 W5        29.83R
6HR MIN TEMP:  60; 6HR MAX TEMP:  73;

WEST BEND      FAIR      63  59  88 W3        29.84S
JUNEAU         FAIR      61  61  99 S5        29.87R FOG
$$

LSZ147-162-020700-
LAKE SUPERIOR

STATION/POSITION TIME  TEMP    WIND        PRES    WAVE
                       AIR SEA DIR/SP/G            HT/PER
                 (UTC) (F)     (DEG/KT/KT) (MB)    (FT/S)
W MID LAKE BUOY  0450   60 57  250/ 10/ 12 1005.7R   1/ 4
DEVILS ISLAND    0500   63     250/ 12/ 13 1006.8S
PORT WING        0500   58     190/  5/  6 1007.8R
SAXON HARBOR     0500   60     200/  7/ 10 1007.8
$$

LMZ867-665-643>646-020700-
LAKE MICHIGAN

STATION/POSITION TIME  TEMP    WIND        PRES    WAVE
                       AIR SEA DIR/SP/G            HT/PER
                 (UTC) (F)     (DEG/KT/KT) (MB)    (FT/S)
N MID LAKE BUOY  0450   66 65  270/  4/  4 1007.4R   2/ 6
NORTHPORT PIER   0500   66     280/  5/  8 1007.8R
KEWAUNEE LAKESHO 0500   64     300/  4/  5 1008.2R
SHEBOYGAN LAKESH 0500   66 49  260/  8/ 10 1009.6R
ATWATER BUOY     0500   68     260/  6/  8 1011.5R
MILWAUKEE LAKESH 0500   71     280/  7/  9   N/A
S MID LAKE BUOY  0450   71 70  260/ 12/ 14 1009.9R   2/ 4
KENOSHA   LAKESH 0500   70     250/  5/  8 1010.2S
$$

TC  - TEMPERATURE IN CELSIUS
VSB - VISIBILITY IN STATUTE MILES
WCI - WIND CHILL INDEX
HX  - HEAT INDEX




USA.gov is the U.S. government's official web portal to all federal, state and local government web resources and services.